Prince Rupert, British Columbia

9:14 PM PST on February 13, 2016 (GMT -0800)
Prince Rupert

Weather History for CYPR - June, 2013

Change the Weather History Date:

Tuesday, June 25, 2013

  Actual Average Record
Temperature  
Mean Temperature 60 °F -  
Max Temperature 66 °F 56 °F 64 °F (2006)
Min Temperature 53 °F 48 °F 46 °F (2008)
Degree Days  
Heating Degree Days 6    
Growing Degree Days 10 (Base 50)    
Moisture  
Dew Point 54 °F    
Average Humidity 84    
Maximum Humidity 94    
Minimum Humidity 68    
Precipitation  
Precipitation 0.08 in - - ()
Sea Level Pressure  
Sea Level Pressure 29.63 in    
Wind  
Wind Speed 5 mph ()    
Max Wind Speed 10 mph    
Max Gust Speed -    
Visibility 8.9 miles    
Events Rain    
Averages and records for this station are not official NWS values.
T = Trace of Precipitation, MM = Missing Value Source: Averaged Metar Reports

Daily Weather History Graph

Daily Weather History Graph

Search for Another Location

Airport or City:

Trip Planner

Search our weather history database for the weather conditions in past years. The results will help you decide how hot, cold, wet, or windy it might be!

Date:

Astronomy

Jun. 25, 2013 Rise Set
Actual Time 5:08 AM PDT 10:20 PM PDT
Civil Twilight 4:13 AM PDT 11:15 PM PDT
Nautical Twilight 2:17 AM PDT 1:09 AM PDT
Astronomical Twilight Sun does not rise Sun does not rise
Moon 11:32 PM PDT (6/25) 8:27 AM PDT (6/25)
Length of Visible Light 19h 02m
Length of Day
17h 11m
Waning Gibbous, 92% of the Moon is Illuminated
Jun 25
Waning Gibbous
Jun 29
Last Quarter
Jul 8
New
Jul 15
First Quarter
Jul 22
Full

Hourly Weather History & Observations

Time (PDT) Temp. Dew Point Humidity Pressure Visibility Wind Dir Wind Speed Gust Speed Precip Events Conditions
12:00 AM 55.4 °F 53.6 °F 94% 29.60 in 9.0 mi Variable 2.3 mph - N/A   Overcast
1:00 AM 55.4 °F 53.6 °F 94% 29.61 in 9.0 mi SE 8.1 mph - N/A   Overcast
1:07 AM 55.4 °F 53.6 °F 94% 29.61 in 9.0 mi SE 8.1 mph - N/A Rain Light Rain
2:00 AM 55.4 °F 51.8 °F 88% 29.62 in 9.0 mi Variable 2.3 mph - N/A Rain Light Rain
3:00 AM 55.4 °F 53.6 °F 94% 29.62 in 9.0 mi Calm Calm - N/A Rain Light Rain
4:00 AM 55.4 °F 53.6 °F 94% 29.63 in 9.0 mi East 3.5 mph - N/A Rain Light Rain
5:00 AM 55 °F 54 °F 93% 29.63 in 10 mi SE 2.3 mph - - Rain Light Rain
5:00 AM 55.4 °F 53.6 °F 94% 29.63 in 9.0 mi Variable 2.3 mph - N/A Rain Light Rain
6:00 AM 55.4 °F 53.6 °F 94% 29.63 in 9.0 mi East 2.3 mph - N/A Rain Light Rain
7:00 AM 55.4 °F 53.6 °F 94% 29.63 in 9.0 mi ESE 3.5 mph - N/A Rain Light Rain
8:00 AM 55.4 °F 53.6 °F 94% 29.63 in 9.0 mi ENE 4.6 mph - N/A Rain Light Rain
9:00 AM 55.4 °F 53.6 °F 94% 29.62 in 9.0 mi ENE 6.9 mph - N/A Rain Light Rain
9:57 AM 57.2 °F 53.6 °F 88% 29.62 in 9.0 mi NE 6.9 mph - N/A   Scattered Clouds
10:00 AM 57.2 °F 53.6 °F 88% 29.62 in 9.0 mi ENE 6.9 mph - N/A   Scattered Clouds
11:00 AM 61 °F 54 °F 71% 29.62 in 10 mi ENE 5.8 mph - -   Clear
11:00 AM 60.8 °F 53.6 °F 77% 29.61 in 9.0 mi ENE 5.8 mph - N/A   Partly Cloudy
11:45 AM 62.6 °F 53.6 °F 72% 29.61 in 9.0 mi Variable 2.3 mph - N/A   Mostly Cloudy
12:00 PM 64.4 °F 55.4 °F 73% 29.60 in 9.0 mi Variable 6.9 mph - N/A   Mostly Cloudy
12:40 PM 62.6 °F 55.4 °F 77% 29.60 in 9.0 mi NNW 8.1 mph - N/A   Mostly Cloudy
1:00 PM 62.6 °F 55.4 °F 77% 29.60 in 9.0 mi NW 10.4 mph - N/A   Mostly Cloudy
2:00 PM 62.6 °F 55.4 °F 77% 29.60 in 9.0 mi NW 10.4 mph - N/A   Mostly Cloudy
3:00 PM 62.6 °F 55.4 °F 77% 29.60 in 9.0 mi NW 10.4 mph - N/A   Overcast
4:00 PM 62.6 °F 55.4 °F 77% 29.61 in 9.0 mi NNW 10.4 mph - N/A   Scattered Clouds
5:00 PM 62 °F 55 °F 70% 29.61 in 10 mi NNW 10.4 mph - -  
5:00 PM 60.8 °F 55.4 °F 82% 29.61 in 9.0 mi NNW 10.4 mph - N/A   Mostly Cloudy
6:00 PM 64.4 °F 53.6 °F 68% 29.60 in 9.0 mi NNW 9.2 mph - N/A   Clear
7:00 PM 64.4 °F 53.6 °F 68% 29.61 in 9.0 mi NW 5.8 mph - N/A   Overcast
7:20 PM 64.4 °F 53.6 °F 68% 29.62 in 9.0 mi Variable 2.3 mph - N/A Rain Light Rain
7:52 PM 59.0 °F 55.4 °F 88% 29.65 in 5.0 mi South 5.8 mph - N/A Rain Rain
7:57 PM 57.2 °F 55.4 °F 94% 29.65 in 6.0 mi SSW 3.5 mph - N/A Rain Light Rain
8:00 PM 57.2 °F 55.4 °F 94% 29.65 in 7.0 mi SW 6.9 mph - N/A Rain Light Rain
8:17 PM 57.2 °F 55.4 °F 94% 29.65 in 9.0 mi Calm Calm - N/A   Overcast
9:00 PM 59.0 °F 55.4 °F 88% 29.66 in 9.0 mi East 3.5 mph - N/A   Overcast
10:00 PM 59.0 °F 53.6 °F 82% 29.69 in 9.0 mi SSE 9.2 mph - N/A   Overcast
11:00 PM 56 °F 52 °F 80% 29.72 in 10 mi SSE 4.6 mph - -   Clear
11:00 PM 55.4 °F 51.8 °F 88% 29.71 in 9.0 mi SSE 3.5 mph - N/A   Mostly Cloudy